WetterOnline ( https://www.wetteronline.de )

Wetter aktuell Soltau

Aktuelles Wetter: Soltau (76m)

6-stündlich | Neueste Meldungen
Ortszeit Temperatur Wetter
Fr, 23.08. 2:00 11.7° C wolkig
Do, 22.08. 20:00 23.5° C leicht bewölkt
Do, 22.08. 14:00 24.7° C wolkenlos
Do, 22.08. 8:00 11.0° C wolkenlos
Do, 22.08. 2:00 9.2° C wolkenlos
Mi, 21.08. 20:00 18.8° C wolkig
Mi, 21.08. 14:00 19.8° C wolkenlos
Mi, 21.08. 8:00 11.8° C wolkenlos
Ortszeit Temperatur Wetter
Fr, 23.08. 3:30 10.1° C wolkig
Fr, 23.08. 3:20 10.1° C wolkig
Fr, 23.08. 3:10 10.1° C wolkig
Fr, 23.08. 3:00 10.8° C wolkig
Fr, 23.08. 2:50 10.8° C wolkig
Fr, 23.08. 2:40 10.8° C wolkig
Fr, 23.08. 2:30 11.4° C wolkig
Fr, 23.08. 2:00 11.7° C wolkig
Fr, 23.08. 1:30 12.1° C wolkig
Fr, 23.08. 1:00 12.1° C leicht bewölkt
Fr, 23.08. 0:30 12.7° C wolkenlos
Ortszeit Relative Feuchte Sichtweite
Fr, 23.08. 2:00 83% 35 km
Do, 22.08. 20:00 38% 60 km
Do, 22.08. 14:00 33% 50 km
Do, 22.08. 8:00 78% 55 km
Do, 22.08. 2:00 92% 30 km
Mi, 21.08. 20:00 52% 60 km
Mi, 21.08. 14:00 43% 50 km
Mi, 21.08. 8:00 89% 11 km
Ortszeit Relative Feuchte Sichtweite
Fr, 23.08. 3:30 89% 30 km
Fr, 23.08. 3:20 89% -
Fr, 23.08. 3:10 89% -
Fr, 23.08. 3:00 89% 35 km
Fr, 23.08. 2:50 89% -
Fr, 23.08. 2:40 90% -
Fr, 23.08. 2:30 85% 35 km
Fr, 23.08. 2:00 83% 35 km
Fr, 23.08. 1:30 81% 40 km
Fr, 23.08. 1:00 82% 40 km
Fr, 23.08. 0:30 79% 40 km
Ortszeit Niederschlagsmenge Niederschlagsart
Fr, 23.08. 2:00 0.0 l/m2 in 6 Std. -
Do, 22.08. 20:00 0.0 l/m2 in 12 Std. -
Do, 22.08. 14:00 0.0 l/m2 in 6 Std. -
Do, 22.08. 8:00 0.0 l/m2 in 12 Std. -
Do, 22.08. 2:00 0.0 l/m2 in 6 Std. -
Mi, 21.08. 20:00 0.0 l/m2 in 12 Std. -
Mi, 21.08. 14:00 0.0 l/m2 in 6 Std. -
Mi, 21.08. 8:00 0.1 l/m2 in 12 Std. -
Ortszeit Niederschlagsmenge Niederschlagsart
Fr, 23.08. 3:30 0.0 l/m2 in 1 Std. -
Fr, 23.08. 3:20 keine Meldung -
Fr, 23.08. 3:10 keine Meldung -
Fr, 23.08. 3:00 0.0 l/m2 in 1 Std. -
Fr, 23.08. 2:50 keine Meldung -
Fr, 23.08. 2:40 keine Meldung -
Fr, 23.08. 2:30 0.0 l/m2 in 1 Std. -
Fr, 23.08. 2:00 0.0 l/m2 in 1 Std. -
Fr, 23.08. 1:30 0.0 l/m2 in 1 Std. -
Fr, 23.08. 1:00 0.0 l/m2 in 1 Std. -
Fr, 23.08. 0:30 0.0 l/m2 in 1 Std. -
Ortszeit Stärke Spitze Richtung
km/h Bft. km/h Grad Sektor
Fr, 23.08. 2:00 2 1 7 350° N
Do, 22.08. 20:00 4 1 40 210° SW
Do, 22.08. 14:00 22 4 36 170° S
Do, 22.08. 8:00 4 1 7 120° SO
Do, 22.08. 2:00 0 0 4 - -
Mi, 21.08. 20:00 0 0 22 - -
Mi, 21.08. 14:00 11 2 25 260° W
Mi, 21.08. 8:00 4 1 11 220° SW
Ortszeit Stärke Spitze Richtung
km/h Bft. km/h Grad Sektor
Fr, 23.08. 3:30 6 1 6 300° NW
Fr, 23.08. 3:20 6 1 - 300° NW
Fr, 23.08. 3:10 4 1 - 310° NW
Fr, 23.08. 3:00 0 0 4 - -
Fr, 23.08. 2:50 0 0 - 20° N
Fr, 23.08. 2:40 2 1 - 30° NO
Fr, 23.08. 2:30 4 1 4 90° O
Fr, 23.08. 2:00 2 1 6 350° N
Fr, 23.08. 1:30 4 1 7 300° NW
Fr, 23.08. 1:00 4 1 7 310° NW
Fr, 23.08. 0:30 4 1 4 330° NW
Ortszeit Untergrenze Bedeckung Gattung
total tief tief mittel hoch
Fr, 23.08. 2:00 10500 m 8/8 0/8 - - -
Do, 22.08. 20:00 9000 m 5/8 0/8 - - -
Do, 22.08. 14:00 12000 m 0/8 0/8 - - -
Do, 22.08. 8:00 - 0/8 0/8 - - -
Do, 22.08. 2:00 - 0/8 0/8 - - -
Mi, 21.08. 20:00 9000 m 7/8 0/8 - - -
Mi, 21.08. 14:00 1500 m 0/8 0/8 - - -
Mi, 21.08. 8:00 - 0/8 0/8 - - -
Ortszeit Bedeckungsgrad in Achtel und Wolkenuntergrenze
Fr, 23.08. 3:30 8(10500m)
Fr, 23.08. 3:20 8(10500m)
Fr, 23.08. 3:10 8(10500m)
Fr, 23.08. 3:00 8(10500m)
Fr, 23.08. 2:50 8(10500m)
Fr, 23.08. 2:40 8(10500m)
Fr, 23.08. 2:30 7(10500m)
Fr, 23.08. 2:00 8(10500m)
Fr, 23.08. 1:30 7(10500m)
Fr, 23.08. 1:00 6(10500m)
Fr, 23.08. 0:30 keine Wolken
Ortszeit Luftdruck NN (hPa) Tendenz (hPa in 3 Std.)
Fr, 23.08. 2:00 1026 + 0,3
Do, 22.08. 20:00 1024 - 0,5
Do, 22.08. 14:00 1025 - 1,4
Do, 22.08. 8:00 1027 - 0,6
Do, 22.08. 2:00 1028 - 0,2
Mi, 21.08. 20:00 1028 - 0,1
Mi, 21.08. 14:00 1028 - 0,2
Mi, 21.08. 8:00 1028 + 1,6
Ortszeit Luftdruck NN (hPa) Tendenz (hPa in 3 Std.)
Fr, 23.08. 3:30 1026 + 0,2
Fr, 23.08. 3:20 1026 keine Meldung
Fr, 23.08. 3:10 1026 keine Meldung
Fr, 23.08. 3:00 1026 + 0,5
Fr, 23.08. 2:50 1026 keine Meldung
Fr, 23.08. 2:40 1026 keine Meldung
Fr, 23.08. 2:30 1026 + 0,5
Fr, 23.08. 2:00 1026 + 0,3
Fr, 23.08. 1:30 1026 + 0,4
Fr, 23.08. 1:00 1026 + 0,4
Fr, 23.08. 0:30 1026 + 0,5
Ortszeit Schneehöhe (cm)
Fr, 23.08. 2:00 -
Do, 22.08. 20:00 -
Do, 22.08. 14:00 -
Do, 22.08. 8:00 -
Do, 22.08. 2:00 -
Mi, 21.08. 20:00 -
Mi, 21.08. 14:00 -
Mi, 21.08. 8:00 -
Ortszeit Schneehöhe (cm)
Fr, 23.08. 3:30 -
Fr, 23.08. 3:20 -
Fr, 23.08. 3:10 -
Fr, 23.08. 3:00 -
Fr, 23.08. 2:50 -
Fr, 23.08. 2:40 -
Fr, 23.08. 2:30 -
Fr, 23.08. 2:00 -
Fr, 23.08. 1:30 -
Fr, 23.08. 1:00 -
Fr, 23.08. 0:30 -
Link zu dieser Seite / Seite empfehlen

Das Wetter in ...